STARLINK-5618 (55415 NORAD) Tracking and Keplerian Element Data

This shows tracking and keplerian element data for the satellite.

Feedback or suggestion? Click here.




ElementValue
Catalog55415
NameSTARLINK-5618
Epoch Orbit1517
Epoch Day127.25001157
Epoch Year2023
RAAN182.1269
Inclination69.999
Eccentricity0.0003279
Argument of Perigee268.9157
Mean Anonmoly162.2662
Mean Motion15.43605134
Decay Rate-0.00969744
L11 55415U 23014AA 23127.25001157 -.00969744 00000+0 -23497-1 0 9992
L22 55415 69.9990 182.1269 0003279 268.9157 162.2662 15.43605134 15173



Live tracking and technical data element details for STARLINK-5618 (NORAD 55415). STARLINK-5618 can be tracked NOW for your location showing map with azimuth and elevation plus other details from your city location.







IsCatalogInMostPopularTable: catalog: 55415, numindb: 1
Update: records affected: 1



GetName: 55415 STARLINK-5618

Hit Count: updated at: Mon, 05 Jun 2023 19:17:45 GMT